SBI6273 UHMD-UHPP

Flight info

Callsign SBI6273
Flight time N/A
Altitude 32000
Route AKETA1B AKETA G212 GIRLO B931 LUGUT B244 TUPAN TUPAN5B
Aircraft T154/M-SDGRWY/S

Departure

Time 2026-04-28 16:21
Airport Provideniya Bay Airport (UHMD)

Arrival

Time N/A
Airport Yelizovo Airport (UHPP)
Time Latitude Longitude Altitude Speed Heading
2026-04-28 16:01 64.38431 -173.23097 44 ft 0 kts 20°
2026-04-28 16:12 64.38486 -173.23050 44 ft 9 kts 18°
2026-04-28 16:12 64.38519 -173.23076 44 ft 6 kts 293°
2026-04-28 16:13 64.38499 -173.23299 44 ft 10 kts 190°
2026-04-28 16:13 64.38372 -173.23379 44 ft 26 kts 200°
2026-04-28 16:13 64.38321 -173.23457 44 ft 0 kts 202°
2026-04-28 16:14 64.38307 -173.23543 44 ft 6 kts 281°
2026-04-28 16:14 64.38268 -173.23923 44 ft 23 kts 207°
2026-04-28 16:15 64.37861 -173.24310 44 ft 41 kts 201°
2026-04-28 16:15 64.37558 -173.24576 44 ft 52 kts 199°
2026-04-28 16:15 64.37221 -173.24857 44 ft 45 kts 199°
2026-04-28 16:16 64.36997 -173.25043 44 ft 6 kts 182°
2026-04-28 16:16 64.36951 -173.25029 44 ft 4 kts 193°
2026-04-28 16:17 64.36912 -173.25105 44 ft 1 kts 264°
2026-04-28 16:17 64.36915 -173.25128 44 ft 1 kts 293°
2026-04-28 16:17 64.36919 -173.25145 44 ft 1 kts 300°
2026-04-28 16:17 64.36930 -173.25156 44 ft 3 kts
2026-04-28 16:18 64.36983 -173.25114 44 ft 9 kts 20°
2026-04-28 16:18 64.37000 -173.25099 44 ft 0 kts 21°
2026-04-28 16:19 64.37016 -173.25085 44 ft 20 kts 21°
2026-04-28 16:19 64.37427 -173.24690 45 ft 104 kts 20°
2026-04-28 16:19 64.37515 -173.24615 45 ft 114 kts 22°
2026-04-28 16:20 64.37557 -173.24577 45 ft 118 kts 24°
2026-04-28 16:21 64.38166 -173.23972 45 ft 164 kts 17°
2026-04-28 16:21 64.39290 -173.23047 813 ft 175 kts 21°
2026-04-28 16:21 64.40377 -173.22163 1901 ft 171 kts 22°
2026-04-28 16:21 64.41513 -173.21248 2778 ft 176 kts 22°
2026-04-28 16:22 64.42733 -173.20522 3442 ft 197 kts
2026-04-28 16:22 64.44018 -173.21893 4109 ft 225 kts 316°
2026-04-28 16:22 64.44600 -173.25372 4827 ft 249 kts 272°
2026-04-28 16:22 64.44555 -173.26721 5022 ft 252 kts 258°
2026-04-28 16:23 64.44386 -173.28043 5164 ft 256 kts 246°
2026-04-28 16:23 64.43613 -173.30608 5472 ft 260 kts 219°
2026-04-28 16:23 64.43590 -173.30656 5480 ft 260 kts 218°
2026-04-28 16:23 64.42346 -173.33102 5772 ft 268 kts 230°
2026-04-28 16:24 64.42254 -173.33350 5816 ft 268 kts 232°
2026-04-28 16:24 64.41499 -173.36612 6480 ft 253 kts 259°
2026-04-28 16:24 64.41370 -173.40482 7107 ft 244 kts 275°
2026-04-28 16:24 64.41490 -173.43814 6959 ft 267 kts 281°
2026-04-28 16:25 64.41637 -173.46410 6872 ft 279 kts 279°
2026-04-28 16:25 64.41779 -173.50830 7581 ft 269 kts 274°
2026-04-28 16:25 64.41784 -173.53896 7948 ft 277 kts 270°
2026-04-28 16:25 64.41534 -173.58542 8494 ft 295 kts 256°
2026-04-28 16:26 64.40884 -173.63097 9355 ft 297 kts 252°
2026-04-28 16:26 64.40215 -173.67792 10370 ft 296 kts 251°
2026-04-28 16:26 64.39566 -173.72282 11281 ft 296 kts 251°
2026-04-28 16:26 64.38913 -173.76758 12163 ft 295 kts 250°
2026-04-28 16:27 64.38257 -173.81229 13026 ft 295 kts 250°
2026-04-28 16:27 64.37652 -173.85718 13865 ft 294 kts 261°
2026-04-28 16:27 64.37729 -173.95119 15156 ft 305 kts 271°
2026-04-28 16:28 64.37735 -174.00084 15665 ft 317 kts 270°
2026-04-28 16:28 64.37734 -174.05267 16168 ft 330 kts 270°
2026-04-28 16:28 64.37730 -174.10667 16752 ft 340 kts 270°
2026-04-28 16:28 64.37721 -174.16206 17394 ft 349 kts 270°
2026-04-28 16:29 64.37695 -174.27695 18610 ft 368 kts 270°
2026-04-28 16:29 64.37657 -174.39625 19994 ft 381 kts 270°
2026-04-28 16:30 64.37627 -174.45824 20740 ft 386 kts 268°
2026-04-28 16:30 64.37424 -174.51968 21514 ft 392 kts 264°
2026-04-28 16:30 64.37138 -174.58215 22301 ft 397 kts 264°
2026-04-28 16:30 64.36849 -174.64595 23099 ft 402 kts 264°
2026-04-28 16:31 64.36573 -174.70991 23852 ft 407 kts 263°
2026-04-28 16:31 64.36295 -174.77612 24620 ft 412 kts 263°
2026-04-28 16:31 64.36019 -174.84213 25394 ft 415 kts 263°
2026-04-28 16:31 64.35744 -174.90768 26163 ft 418 kts 263°
2026-04-28 16:32 64.35462 -174.97463 26944 ft 421 kts 263°
2026-04-28 16:32 64.34888 -175.10884 28509 ft 423 kts 263°
2026-04-28 16:32 64.34592 -175.17647 29294 ft 423 kts 263°
2026-04-28 16:33 64.34295 -175.24394 30070 ft 423 kts 262°
2026-04-28 16:33 64.34099 -175.28806 30571 ft 423 kts 262°
2026-04-28 16:33 64.33694 -175.37820 31568 ft 422 kts 262°
2026-04-28 16:33 64.33405 -175.44443 32317 ft 420 kts 265°
2026-04-28 16:34 64.33107 -175.51128 33077 ft 417 kts 264°
2026-04-28 16:34 64.32794 -175.57695 33778 ft 415 kts 264°
2026-04-28 16:34 64.32478 -175.64293 34449 ft 414 kts 264°
2026-04-28 16:34 64.32164 -175.70863 35048 ft 413 kts 263°
2026-04-28 16:35 64.31850 -175.77403 35604 ft 413 kts 263°
2026-04-28 16:35 64.31535 -175.83942 36136 ft 413 kts 263°
2026-04-28 16:35 64.31213 -175.90540 36654 ft 413 kts 263°
2026-04-28 16:35 64.30892 -175.97069 37147 ft 413 kts 263°
2026-04-28 16:36 64.30563 -176.03696 37109 ft 429 kts 263°
2026-04-28 16:36 64.30213 -176.10689 36950 ft 442 kts 263°
2026-04-28 16:36 64.29858 -176.17722 37026 ft 454 kts 263°
2026-04-28 16:36 64.29483 -176.25058 37001 ft 464 kts 263°
2026-04-28 16:37 64.28704 -176.40076 37006 ft 481 kts 263°
2026-04-28 16:38 64.27477 -176.63142 36978 ft 475 kts 263°
2026-04-28 16:38 64.27078 -176.70503 36982 ft 462 kts 262°
2026-04-28 16:38 64.26678 -176.77811 36996 ft 459 kts 262°
2026-04-28 16:39 64.25855 -176.92645 37008 ft 477 kts 262°
2026-04-28 16:39 64.24987 -177.07968 37003 ft 484 kts 262°
2026-04-28 16:40 64.24119 -177.23012 36998 ft 474 kts 262°
2026-04-28 16:40 64.23229 -177.38156 37002 ft 477 kts 262°
2026-04-28 16:41 64.22339 -177.53027 36999 ft 473 kts 262°
2026-04-28 16:41 64.21422 -177.68086 36990 ft 474 kts 262°
2026-04-28 16:42 64.20503 -177.82953 36999 ft 475 kts 262°
2026-04-28 16:42 64.19560 -177.97903 36998 ft 474 kts 262°
2026-04-28 16:43 64.18600 -178.12880 37000 ft 474 kts 262°
2026-04-28 16:43 64.17629 -178.27788 37000 ft 474 kts 262°
2026-04-28 16:44 64.16643 -178.42686 37000 ft 474 kts 262°
2026-04-28 16:44 64.15640 -178.57575 37001 ft 474 kts 262°
2026-04-28 16:45 64.14625 -178.72437 36988 ft 474 kts 261°
2026-04-28 16:45 64.13591 -178.87355 36996 ft 474 kts 261°
2026-04-28 16:46 64.12546 -179.02187 36997 ft 474 kts 261°
2026-04-28 16:46 64.11481 -179.17065 36998 ft 474 kts 261°
2026-04-28 16:47 64.10406 -179.31867 36996 ft 474 kts 261°
2026-04-28 16:47 64.09312 -179.46706 36996 ft 474 kts 261°
2026-04-28 16:48 64.08202 -179.61562 37005 ft 474 kts 260°
2026-04-28 16:48 64.07082 -179.76337 37001 ft 474 kts 260°
2026-04-28 16:49 64.05943 -179.91153 36999 ft 474 kts 260°
2026-04-28 16:49 64.04788 179.94055 36997 ft 474 kts 260°
2026-04-28 16:50 64.03623 179.79332 36998 ft 474 kts 260°
2026-04-28 16:50 64.02438 179.64551 36998 ft 474 kts 260°
2026-04-28 16:51 64.01239 179.49797 36998 ft 474 kts 260°
2026-04-28 16:51 64.00027 179.35077 36996 ft 474 kts 260°
2026-04-28 16:52 63.98801 179.20371 37010 ft 475 kts 259°
2026-04-28 16:52 63.97560 179.05673 37001 ft 474 kts 259°
2026-04-28 16:53 63.96305 178.91016 37002 ft 474 kts 259°
2026-04-28 16:53 63.95033 178.76356 36999 ft 474 kts 259°
2026-04-28 16:54 63.93743 178.61673 37000 ft 474 kts 259°
2026-04-28 16:54 63.92442 178.47043 37001 ft 474 kts 259°
2026-04-28 16:55 63.91119 178.32350 36992 ft 474 kts 258°
2026-04-28 16:55 63.89793 178.17770 36993 ft 475 kts 258°
2026-04-28 16:56 63.88411 178.03105 37000 ft 474 kts 258°
2026-04-28 16:56 63.87040 177.88536 37001 ft 474 kts 258°
2026-04-28 16:57 63.85664 177.73984 37002 ft 474 kts 258°
2026-04-28 16:57 63.84270 177.59384 37000 ft 474 kts 258°
2026-04-28 16:58 63.82867 177.44862 37000 ft 474 kts 258°
2026-04-28 16:58 63.81440 177.30254 36984 ft 474 kts 257°
2026-04-28 16:59 63.80013 177.15785 36996 ft 474 kts 257°
2026-04-28 16:59 63.78563 177.01257 36996 ft 474 kts 257°
2026-04-28 17:00 63.77103 176.86806 36996 ft 474 kts 257°
2026-04-28 17:00 63.75617 176.72263 36997 ft 474 kts 257°
2026-04-28 17:01 63.74134 176.57896 36997 ft 474 kts 257°
2026-04-28 17:01 63.72617 176.43356 36997 ft 474 kts 257°
2026-04-28 17:02 63.71104 176.29001 36987 ft 474 kts 256°
2026-04-28 17:02 63.69562 176.14516 36998 ft 474 kts 256°
2026-04-28 17:03 63.67235 175.92950 37001 ft 474 kts 256°
2026-04-28 17:03 63.65667 175.78613 36999 ft 474 kts 256°
2026-04-28 17:04 63.63272 175.56996 36999 ft 474 kts 256°
2026-04-28 17:05 63.60862 175.35562 37000 ft 474 kts 256°
2026-04-28 17:06 63.58409 175.14040 36996 ft 474 kts 255°
2026-04-28 17:06 63.55932 174.92642 36999 ft 474 kts 255°
2026-04-28 17:07 63.54255 174.78339 36999 ft 474 kts 255°
2026-04-28 17:07 63.52576 174.64159 36999 ft 474 kts 255°
2026-04-28 17:08 63.50871 174.49893 36997 ft 474 kts 255°
2026-04-28 17:08 63.49156 174.35678 36998 ft 474 kts 255°
2026-04-28 17:09 63.47429 174.21466 37006 ft 474 kts 254°
2026-04-28 17:09 63.45698 174.07369 37001 ft 474 kts 254°
2026-04-28 17:10 63.43938 173.93179 36998 ft 474 kts 254°
2026-04-28 17:10 63.42171 173.79069 36999 ft 474 kts 254°
2026-04-28 17:11 63.40387 173.64946 36999 ft 474 kts 254°
2026-04-28 17:11 63.38582 173.50792 37000 ft 474 kts 254°
2026-04-28 17:12 63.36731 173.36777 36993 ft 474 kts 248°
2026-04-28 17:12 63.35175 173.30264 37013 ft 474 kts 236°
2026-04-28 17:12 63.33283 173.24281 37013 ft 476 kts 233°
2026-04-28 17:13 63.29308 173.12707 36997 ft 474 kts 232°
2026-04-28 17:13 63.25428 173.01521 37001 ft 474 kts 232°
2026-04-28 17:14 63.21430 172.90002 37000 ft 474 kts 232°
2026-04-28 17:14 63.17409 172.78465 36998 ft 474 kts 232°
2026-04-28 17:15 63.13385 172.66978 36999 ft 474 kts 232°
2026-04-28 17:15 63.09358 172.55537 37000 ft 474 kts 232°
2026-04-28 17:16 63.05304 172.44081 37000 ft 474 kts 232°
2026-04-28 17:16 63.01253 172.32687 36988 ft 474 kts 231°
2026-04-28 17:17 62.97187 172.21281 37003 ft 475 kts 231°
2026-04-28 17:17 62.93106 172.09911 37003 ft 474 kts 231°
2026-04-28 17:18 62.89020 171.98599 36983 ft 475 kts 231°
2026-04-28 17:18 62.84932 171.87415 37010 ft 475 kts 231°
2026-04-28 17:19 62.80798 171.76132 37042 ft 474 kts 231°
2026-04-28 17:19 62.76677 171.64935 37099 ft 475 kts 231°
2026-04-28 17:20 62.72535 171.53729 37169 ft 476 kts 231°
2026-04-28 17:20 62.68524 171.42929 37002 ft 484 kts 231°
2026-04-28 17:21 62.66446 171.37354 36988 ft 465 kts 231°
2026-04-28 17:21 62.64410 171.31898 37002 ft 472 kts 231°
2026-04-28 17:22 62.58171 171.15243 37007 ft 472 kts 230°
2026-04-28 17:22 62.54016 171.04244 37017 ft 475 kts 230°
2026-04-28 17:23 62.47762 170.87788 37011 ft 474 kts 230°
2026-04-28 17:23 62.43569 170.76825 37011 ft 474 kts 230°
2026-04-28 17:24 62.39382 170.65927 37012 ft 474 kts 230°
2026-04-28 17:24 62.35172 170.55023 37012 ft 474 kts 230°
2026-04-28 17:25 62.28828 170.38692 37010 ft 474 kts 230°
2026-04-28 17:26 62.24617 170.27901 37022 ft 474 kts 230°
2026-04-28 17:26 62.20389 170.17110 37016 ft 474 kts 230°
2026-04-28 17:27 62.16135 170.06322 37016 ft 474 kts 230°
2026-04-28 17:27 62.11892 169.95618 37013 ft 474 kts 230°
2026-04-28 17:28 62.07652 169.84975 37014 ft 474 kts 230°
2026-04-28 17:28 62.01218 169.69032 37015 ft 474 kts 229°
2026-04-28 17:29 61.96867 169.58472 37013 ft 474 kts 229°
2026-04-28 17:30 61.90382 169.42781 37013 ft 474 kts 229°
2026-04-28 17:30 61.83817 169.27061 37018 ft 474 kts 228°
2026-04-28 17:31 61.77295 169.11485 37012 ft 474 kts 228°
2026-04-28 17:32 61.70724 168.95901 37013 ft 474 kts 228°
2026-04-28 17:32 61.66369 168.85635 37013 ft 474 kts 228°
2026-04-28 17:33 61.61962 168.75293 37014 ft 474 kts 228°
2026-04-28 17:33 61.58302 168.66739 37012 ft 474 kts 228°
2026-04-28 17:34 61.53162 168.54784 37012 ft 474 kts 228°
2026-04-28 17:34 61.48755 168.44582 37012 ft 474 kts 228°
2026-04-28 17:35 61.44353 168.34438 37013 ft 474 kts 227°
2026-04-28 17:35 61.40748 168.26141 37024 ft 474 kts 227°
2026-04-28 17:36 61.36307 168.15976 37015 ft 474 kts 227°
2026-04-28 17:36 61.31869 168.05875 37016 ft 474 kts 227°
2026-04-28 17:37 61.27432 167.95827 37016 ft 474 kts 227°
2026-04-28 17:37 61.22957 167.85736 37016 ft 474 kts 227°
2026-04-28 17:38 61.18494 167.75722 37013 ft 474 kts 227°
2026-04-28 17:38 61.14019 167.65724 37014 ft 474 kts 227°
2026-04-28 17:39 61.09551 167.55785 37014 ft 474 kts 227°
2026-04-28 17:40 61.02813 167.40880 37015 ft 474 kts 227°
2026-04-28 17:40 60.98318 167.30986 37002 ft 474 kts 226°
2026-04-28 17:41 60.93827 167.21121 37013 ft 474 kts 226°
2026-04-28 17:41 60.89290 167.11223 37004 ft 475 kts 226°
2026-04-28 17:42 60.84769 167.01472 37016 ft 475 kts 226°
2026-04-28 17:42 60.80252 166.91737 37011 ft 474 kts 226°
2026-04-28 17:43 60.75706 166.81959 37013 ft 474 kts 226°
2026-04-28 17:43 60.71174 166.72252 37013 ft 474 kts 226°
2026-04-28 17:44 60.67377 166.64201 37016 ft 474 kts 226°
2026-04-28 17:44 60.62754 166.54677 37014 ft 474 kts 225°
2026-04-28 17:45 60.58129 166.45172 37011 ft 474 kts 226°
2026-04-28 17:45 60.53514 166.35712 37012 ft 474 kts 226°
2026-04-28 17:46 60.48884 166.26233 37024 ft 474 kts 225°
2026-04-28 17:46 60.44234 166.16760 37016 ft 474 kts 225°
2026-04-28 17:47 60.39577 166.07330 37013 ft 474 kts 225°
2026-04-28 17:47 60.34486 165.99138 37033 ft 474 kts 207°
2026-04-28 17:48 60.28471 165.93581 37008 ft 473 kts 204°
2026-04-28 17:48 60.22465 165.88159 37013 ft 474 kts 204°
2026-04-28 17:49 60.16487 165.82678 37009 ft 474 kts 205°
2026-04-28 17:49 60.10502 165.77190 37010 ft 474 kts 205°
2026-04-28 17:50 60.04505 165.71706 37010 ft 474 kts 205°
2026-04-28 17:50 59.98537 165.66272 37011 ft 474 kts 205°
2026-04-28 17:51 59.92523 165.60898 37011 ft 474 kts 204°
2026-04-28 17:51 59.86527 165.55644 37010 ft 473 kts 204°
2026-04-28 17:52 59.80518 165.50394 37013 ft 474 kts 204°
2026-04-28 17:52 59.71470 165.42493 37016 ft 474 kts 204°
2026-04-28 17:53 59.65460 165.37265 37016 ft 474 kts 204°
2026-04-28 17:53 59.59459 165.32053 37010 ft 474 kts 203°
2026-04-28 17:54 59.53434 165.26828 37014 ft 474 kts 203°
2026-04-28 17:54 59.47412 165.21646 37015 ft 474 kts 203°
2026-04-28 17:55 59.41375 165.16476 37015 ft 474 kts 203°
2026-04-28 17:55 59.35341 165.11330 37013 ft 474 kts 203°
2026-04-28 17:56 59.29327 165.06220 37013 ft 474 kts 203°
2026-04-28 17:56 59.23273 165.01097 37013 ft 474 kts 203°
2026-04-28 17:57 59.17263 164.96030 37014 ft 474 kts 203°
2026-04-28 17:57 59.11923 164.91544 37014 ft 474 kts 203°
2026-04-28 17:58 59.05913 164.86514 37012 ft 474 kts 203°
2026-04-28 17:58 58.99883 164.81486 37012 ft 474 kts 203°
2026-04-28 17:59 58.93828 164.76457 37012 ft 474 kts 203°
2026-04-28 17:59 58.87780 164.71458 36981 ft 474 kts 203°
2026-04-28 18:00 58.81717 164.66486 37009 ft 475 kts 203°
2026-04-28 18:00 58.75704 164.61556 37010 ft 474 kts 203°
2026-04-28 18:01 58.69640 164.56596 37013 ft 474 kts 203°
2026-04-28 18:01 58.63577 164.51654 37014 ft 474 kts 203°
2026-04-28 18:02 58.57534 164.46748 37014 ft 474 kts 203°
2026-04-28 18:02 58.51463 164.41838 37011 ft 474 kts 203°
2026-04-28 18:03 58.45441 164.36986 37012 ft 474 kts 203°
2026-04-28 18:03 58.39370 164.32098 37009 ft 474 kts 202°
2026-04-28 18:04 58.33292 164.27214 37012 ft 474 kts 202°
2026-04-28 18:04 58.27243 164.22388 37011 ft 474 kts 202°
2026-04-28 18:05 58.22219 164.18399 37010 ft 474 kts 202°
2026-04-28 18:05 58.15138 164.12796 37011 ft 474 kts 202°
2026-04-28 18:06 58.09056 164.08003 37011 ft 474 kts 202°
2026-04-28 18:06 58.02973 164.03229 37012 ft 474 kts 202°
2026-04-28 18:07 57.96938 163.98508 37009 ft 474 kts 202°
2026-04-28 18:07 57.90867 163.93777 37010 ft 474 kts 202°
2026-04-28 18:08 57.84769 163.89059 37030 ft 474 kts 202°
2026-04-28 18:08 57.78694 163.84374 37017 ft 474 kts 202°
2026-04-28 18:09 57.72612 163.79689 37014 ft 474 kts 202°
2026-04-28 18:09 57.66526 163.75017 37012 ft 474 kts 202°
2026-04-28 18:10 57.60457 163.70372 37013 ft 474 kts 202°
2026-04-28 18:10 57.54370 163.65730 37013 ft 474 kts 202°
2026-04-28 18:11 57.48313 163.61130 37013 ft 474 kts 202°
2026-04-28 18:11 57.42234 163.56528 37010 ft 474 kts 202°
2026-04-28 18:12 57.36148 163.51936 37011 ft 474 kts 202°
2026-04-28 18:12 57.30060 163.47362 37012 ft 474 kts 202°
2026-04-28 18:13 57.23974 163.42804 37012 ft 474 kts 202°
2026-04-28 18:13 57.17875 163.38252 37010 ft 474 kts 202°
2026-04-28 18:14 57.11795 163.33728 37003 ft 474 kts 201°
2026-04-28 18:14 57.05667 163.29158 37008 ft 474 kts 201°
2026-04-28 18:15 56.99618 163.24683 37008 ft 474 kts 201°
2026-04-28 18:15 56.93514 163.20190 37008 ft 474 kts 201°
2026-04-28 18:16 56.87391 163.15707 36990 ft 473 kts 201°
2026-04-28 18:16 56.81276 163.11261 37010 ft 474 kts 201°
2026-04-28 18:17 56.75187 163.06834 37013 ft 474 kts 201°
2026-04-28 18:17 56.69073 163.02397 37015 ft 474 kts 201°
2026-04-28 18:18 56.62996 162.97972 37013 ft 474 kts 202°
2026-04-28 18:18 56.57898 162.94270 37014 ft 474 kts 202°
2026-04-28 18:19 56.50764 162.89113 37014 ft 474 kts 202°
2026-04-28 18:19 56.44679 162.84731 37014 ft 474 kts 201°
2026-04-28 18:20 56.38564 162.80342 37014 ft 474 kts 201°
2026-04-28 18:20 56.32477 162.75989 37012 ft 474 kts 202°
2026-04-28 18:21 56.26356 162.71626 37013 ft 474 kts 201°
2026-04-28 18:21 56.20524 162.66332 37019 ft 473 kts 219°
2026-04-28 18:22 56.15565 162.58594 37002 ft 474 kts 222°
2026-04-28 18:22 56.10607 162.50839 37006 ft 474 kts 221°
2026-04-28 18:23 56.05606 162.43202 37006 ft 474 kts 220°
2026-04-28 18:23 56.00591 162.35608 37008 ft 474 kts 220°
2026-04-28 18:24 55.96419 162.29294 37023 ft 474 kts 220°
2026-04-28 18:24 55.90572 162.20480 37017 ft 474 kts 220°
2026-04-28 18:25 55.85523 162.12947 37027 ft 474 kts 220°
2026-04-28 18:26 55.77949 162.01675 37011 ft 474 kts 220°
2026-04-28 18:26 55.72908 161.94186 37013 ft 474 kts 220°
2026-04-28 18:27 55.67892 161.86763 37014 ft 474 kts 220°
2026-04-28 18:27 55.62841 161.79311 37011 ft 474 kts 220°
2026-04-28 18:28 55.57757 161.71835 37012 ft 474 kts 220°
2026-04-28 18:28 55.52728 161.64467 37013 ft 474 kts 220°
2026-04-28 18:29 55.47653 161.57056 37013 ft 474 kts 220°
2026-04-28 18:29 55.42587 161.49684 37011 ft 474 kts 220°
2026-04-28 18:30 55.37526 161.42346 37011 ft 474 kts 220°
2026-04-28 18:30 55.32449 161.35010 37011 ft 474 kts 220°
2026-04-28 18:31 55.27356 161.27647 37022 ft 474 kts 219°
2026-04-28 18:31 55.22297 161.20369 37016 ft 474 kts 219°
2026-04-28 18:32 55.17202 161.13078 37014 ft 474 kts 219°
2026-04-28 18:32 55.12106 161.05814 37014 ft 474 kts 219°
2026-04-28 18:33 55.07000 160.98560 37014 ft 474 kts 219°
2026-04-28 18:33 55.01923 160.91370 37015 ft 474 kts 219°
2026-04-28 18:34 54.96818 160.84168 37013 ft 474 kts 219°
2026-04-28 18:34 54.91692 160.76958 37013 ft 474 kts 219°
2026-04-28 18:35 54.86579 160.69812 37020 ft 473 kts 219°
2026-04-28 18:35 54.81444 160.62668 37014 ft 474 kts 219°
2026-04-28 18:36 54.79364 160.59772 37014 ft 474 kts 219°
2026-04-28 18:55 54.76599 160.55927 37013 ft 474 kts 219°